Regional Weather Roundup
Issued by NWS

Home | Current Version | Previous Version | Graphics & Text | Print | Product List | Glossary On
Versions: 1 2 3 4 5 6 7 8 9 10 11 12 13 14 15 16 17 18 19 20 21 22 23 24 25 26 27 28 29 30 31 32 33 34 35 36 37 38 39 40 41 42 43 44 45 46 47 48 49 50
000
ASUS43 KLSX 301507
RWRMO

WEATHER SUMMARY FOR MISSOURI
NATIONAL WEATHER SERVICE SPRINGFIELD MO
1000 AM CDT WED JUL 30 2014

NOTE: "FAIR" INDICATES FEW OR NO CLOUDS BELOW 12,000 FEET WITH NO
       SIGNIFICANT WEATHER AND/OR OBSTRUCTIONS TO VISIBILITY.
       CURRENT SKY AND/OR WEATHER CONDITIONS ARE NOT AVAILABLE FOR
       CHILLICOTHE AND FARMINGTON.

MOZ001>031-035>038-043-044-053-054-301600-
...NORTHERN AND WESTERN MISSOURI...

CITY           SKY/WX    TMP DP  RH WIND       PRES   REMARKS
KANSAS CTY INT CLOUDY    68  59  73 NE5       30.12S
KANSAS C DTWN  CLOUDY    71  57  61 NE3       30.11S
LEE`S SUMMIT   CLOUDY    68  59  73 NE6       30.12F
ST JOSEPH      PTSUNNY   69  62  78 N5        30.13S
CHILLICOTHE      N/A     75  59  57 CALM      30.13S
KIRKSVILLE     SUNNY     75  59  57 N5        30.12F

$$
MOZ066>068-077>081-088>096-101>105-301600-
...SOUTHWEST MISSOURI...

CITY           SKY/WX    TMP DP  RH WIND       PRES   REMARKS
SPRINGFIELD    CLOUDY    73  60  63 W5        30.10S HAZE
JOPLIN         CLOUDY    68  65  90 E6        30.11S

$$
MOZ032>034-039>042-045>050-055>058-069>072-301600-
...CENTRAL MISSOURI...

CITY           SKY/WX    TMP DP  RH WIND       PRES   REMARKS
COLUMBIA       CLOUDY    73  58  59 N5        30.11S
JEFFERSON CITY CLOUDY    71  61  70 CALM      30.10S
ROLLA          CLOUDY    68  59  73 CALM      30.09F
SEDALIA        CLOUDY    69  62  78 N3        30.11S
WHITEMAN AFB   PTSUNNY   67  54  64 N2        30.11R
OSAGE BEACH    CLOUDY    68  59  73 CALM      30.10S

$$
MOZ051-052-059>065-301600-
...EAST CENTRAL MISSOURI...

CITY           SKY/WX    TMP DP  RH WIND       PRES   REMARKS
ST LOUIS INTL  PTSUNNY   79  56  45 CALM      30.11S
SPIRIT OF STL  MOSUNNY   77  60  55 NW3       30.10R
ST CHARLES     PTSUNNY   75  60  59 W3        30.10S

$$
MOZ072>076-082>087-097>100-106>115-301600-
...SOUTH CENTRAL AND SOUTHEAST MISSOURI...

CITY           SKY/WX    TMP DP  RH WIND       PRES   REMARKS
CAPE GIRARDEAU PTSUNNY   71  60  68 CALM      30.11S
FARMINGTON     CLOUDY    70  57  64 W3        30.14S
POPLAR BLUFF   PTSUNNY   71  59  65 CALM      30.11R
WEST PLAINS    PTSUNNY   70  60  70 SW5       30.13S

$$



USA.gov is the U.S. government's official web portal to all federal, state and local government web resources and services.